Location: Caltech
(34.1382°N, 118.1253°W)
Time: 21:20:41
(UTC-07:00)

CZ-4B DEB - Visible Passes

Search period start: 25 October 2014 00:00
Search period end: 03 November 2014 23:00
Orbit: 844 x 863 km, 98.8° (Epoch: 25 October)

Date Brightness Start Highest point End Pass type
(mag) Time Alt. Az. Time Alt. Az. Time Alt. Az.
25 Oct 6.4 03:59:11 10° NNE 04:00:43 19° NNE 04:00:43 19° NNE visible
25 Oct 5.9 05:41:10 10° NNW 05:42:46 15° NW 05:42:46 15° NW visible
26 Oct 6.6 03:48:25 10° NNE 03:49:28 15° NE 03:49:28 15° NE visible
26 Oct 5.9 05:29:47 10° NNW 05:31:31 17° NNW 05:31:31 17° NNW visible
27 Oct 6.9 03:37:43 10° NE 03:38:12 12° NE 03:38:12 12° NE visible
27 Oct 5.9 05:18:30 10° N 05:20:16 18° NNW 05:20:16 18° NNW visible
28 Oct 5.9 05:07:19 10° N 05:09:01 19° NNW 05:09:01 19° NNW visible
29 Oct 6.0 04:56:11 10° N 04:57:45 19° N 04:57:45 19° N visible
30 Oct 6.1 04:45:06 10° N 04:46:29 18° N 04:46:29 18° N visible
31 Oct 6.3 04:34:05 10° N 04:35:13 17° N 04:35:13 17° N visible
01 Nov 6.5 04:23:06 10° NNE 04:23:57 15° NNE 04:23:57 15° NNE visible
02 Nov 6.7 03:12:11 10° NNE 03:12:41 13° NNE 03:12:41 13° NNE visible
03 Nov 6.9 03:01:19 10° NNE 03:01:25 11° NNE 03:01:25 11° NNE visible
03 Nov 6.3 04:43:26 10° NNW 04:43:28 10° NNW 04:43:28 10° NNW visible
